Location: Newark
(15.4608°S, 41.1635°W)
Time: 19:47:47
(UTC+00:00)

deb Explorer IX - All Passes

Search period start: 28 February 2021 00:00
Search period end: 10 March 2021 00:00
Orbit: 537 x 1102 km, 38.8° (Epoch: 28 February)

Date Brightness Start Highest point End Pass type
(mag) Time Alt. Az. Time Alt. Az. Time Alt. Az.
28 Feb - 00:25:26 10° SW 00:30:54 42° SSE 00:35:34 10° ENE visible
28 Feb - 02:13:17 10° WSW 02:17:35 27° NW 02:21:24 10° NNE night (unlit)
28 Feb - 14:56:57 10° NW 15:03:30 54° NE 15:10:37 10° ESE daylight
28 Feb - 16:44:23 10° W 16:51:01 40° SSW 16:57:50 10° SE daylight
28 Feb - 18:35:59 10° SW 18:39:41 14° SSW 18:43:21 10° SSE daylight
28 Feb - 22:15:50 10° SSW 22:18:53 14° SSE 22:21:46 10° SE visible
01 Mar - 00:01:29 10° SW 00:07:10 43° SSE 00:11:59 10° ENE visible
01 Mar - 01:49:22 10° WSW 01:53:53 28° NW 01:57:50 10° NNE night (unlit)
01 Mar - 14:33:11 10° NW 14:39:36 54° NE 14:46:40 10° ESE daylight
01 Mar - 16:20:34 10° W 16:27:06 40° SSW 16:33:56 10° SE daylight
01 Mar - 18:12:02 10° SW 18:15:48 14° SSW 18:19:32 10° SSE daylight
01 Mar - 21:51:44 10° SSW 21:55:05 14° SSE 21:58:14 10° SE visible
01 Mar - 23:37:30 10° SW 23:43:24 45° SSE 23:48:24 10° ENE visible
02 Mar - 01:25:27 10° WSW 01:30:09 29° NW 01:34:16 10° NNE night (unlit)
02 Mar - 14:09:26 10° NNW 14:15:42 53° NE 14:22:41 10° ESE daylight
02 Mar - 15:56:46 10° W 16:03:11 39° SSW 16:10:00 10° SE daylight
02 Mar - 17:48:09 10° SW 17:51:55 14° SSW 17:55:41 10° SSE daylight
02 Mar - 21:27:38 10° SSW 21:31:16 15° SSE 21:34:41 10° SE visible
02 Mar - 23:13:31 10° SW 23:19:37 46° SSE 23:24:47 10° ENE visible
03 Mar - 01:01:30 10° WSW 01:06:25 30° NW 01:10:42 10° NNE visible
03 Mar - 13:45:43 10° NNW 13:51:49 53° NE 13:58:43 10° ESE daylight
03 Mar - 15:32:59 10° W 15:39:16 39° SSW 15:46:03 10° SE daylight
03 Mar - 17:24:16 10° SW 17:28:02 14° SSW 17:31:48 10° SSE daylight
03 Mar - 21:03:33 10° SSW 21:07:25 15° SSE 21:11:05 10° SE daylight
03 Mar - 22:49:32 10° SW 22:55:49 47° SSE 23:01:10 10° ENE visible
04 Mar - 00:37:32 10° WSW 00:42:40 30° NW 00:47:07 10° NNE visible
04 Mar - 13:22:00 10° NNW 13:27:56 52° NE 13:34:43 10° ESE daylight
04 Mar - 15:09:12 10° W 15:15:21 38° SSW 15:22:04 10° SE daylight
04 Mar - 17:00:26 10° SW 17:04:08 14° SSW 17:07:53 10° SSE daylight
04 Mar - 20:39:29 10° SSW 20:43:34 16° SSE 20:47:26 10° SE daylight
04 Mar - 22:25:32 10° SW 22:31:59 48° SSE 22:37:31 10° ENE visible
05 Mar - 00:13:33 10° WSW 00:18:53 31° NW 00:23:30 10° NNE visible
05 Mar - 12:58:19 10° NNW 13:04:04 51° NE 13:10:43 10° ESE daylight
05 Mar - 14:45:28 10° W 14:51:28 38° SSW 14:58:05 10° SE daylight
05 Mar - 16:36:37 10° SW 16:40:14 14° SSW 16:43:55 10° SSE daylight
05 Mar - 20:15:27 10° SSW 20:19:42 16° SSE 20:23:45 10° SE daylight
05 Mar - 22:01:31 10° SW 22:08:08 49° SSE 22:13:51 10° ENE visible
05 Mar - 23:49:33 10° WSW 23:55:05 32° NW 23:59:53 10° NNE visible
06 Mar - 12:34:39 10° NNW 12:40:12 51° NE 12:46:42 10° ESE daylight
06 Mar - 14:21:44 10° W 14:27:34 37° SSW 14:34:05 10° SE daylight
06 Mar - 16:12:50 10° SW 16:16:20 14° SSW 16:19:56 10° SSE daylight
06 Mar - 19:51:24 10° SSW 19:55:49 17° SSE 20:00:01 10° ESE daylight
06 Mar - 21:37:31 10° SW 21:44:16 50° SSE 21:50:10 10° ENE visible
06 Mar - 23:25:32 10° WSW 23:31:16 33° NW 23:36:15 10° NNE visible
07 Mar - 12:11:00 10° NNW 12:16:23 50° NE 12:22:41 10° ESE daylight
07 Mar - 13:58:02 10° W 14:03:41 37° SSW 14:10:04 10° SE daylight
07 Mar - 15:49:06 10° SW 15:52:27 14° SSW 15:55:54 10° SSE daylight
07 Mar - 19:27:24 10° SSW 19:31:55 17° SSE 19:36:17 10° ESE daylight
07 Mar - 21:13:30 10° SW 21:20:23 50° SSE 21:26:28 10° ENE visible
07 Mar - 23:01:31 10° WSW 23:07:25 34° NW 23:12:36 10° NNE visible
08 Mar - 11:47:20 10° NNW 11:52:33 49° NE 11:58:41 10° ESE daylight
08 Mar - 13:34:20 10° W 13:39:49 36° SSW 13:46:03 10° SE daylight
08 Mar - 15:25:23 10° SW 15:28:33 13° SSW 15:31:50 10° SSE daylight
08 Mar - 19:03:24 10° SSW 19:08:01 17° SSE 19:12:29 10° ESE daylight
08 Mar - 20:49:29 10° SW 20:56:29 51° SE 21:02:43 10° ENE daylight
08 Mar - 22:37:30 10° WSW 22:43:34 35° NW 22:48:56 10° NNE visible
09 Mar - 11:23:42 10° NNW 11:28:44 48° NE 11:34:41 10° ESE daylight
09 Mar - 13:10:40 10° W 13:15:57 35° SSW 13:22:01 10° SE daylight
09 Mar - 15:01:43 10° SW 15:04:40 13° SSW 15:07:44 10° SSE daylight
09 Mar - 18:39:26 10° SSW 18:44:06 18° SSE 18:48:40 10° ESE daylight
09 Mar - 20:25:30 10° SW 20:32:34 52° SE 20:38:57 10° ENE daylight
09 Mar - 22:13:28 10° WSW 22:19:42 36° NW 22:25:14 10° NNE visible
